This is the latest recevied weather packets stored in our database for station/object VR2HK-13. If no packets are shown the sender has not sent any weather packets the latest 1 day(s).
| Time | Temp. | Humidity | Pressure | Rain* | Wind** | Luminosity | Snow |
|---|---|---|---|---|---|---|---|
| 1778035804 | 23.33° C | 81% | 1013.9 hPa | 0 mm | 3.13 m/s, 70° | - | - |
| 1778035508 | 23.33° C | 81% | 1014 hPa | 0 mm | 1.34 m/s, 330° | - | - |
| 1778035505 | 23.33° C | 81% | 1014 hPa | 0 mm | 1.34 m/s, 353° | - | - |
| 1778035205 | 23.89° C | 81% | 1013.9 hPa | 0 mm | 1.79 m/s, 22° | - | - |
| 1778034904 | 23.89° C | 81% | 1013.9 hPa | 0 mm | 1.34 m/s, 190° | - | - |
| 1778034885 | 23.89° C | 81% | 1013.9 hPa | 0 mm | 0.45 m/s, 204° | - | - |
| 1778034604 | 23.89° C | 81% | 1013.9 hPa | 0 mm | 1.34 m/s, 28° | - | - |
| 1778034576 | 23.89° C | 81% | 1013.9 hPa | 0 mm | 1.34 m/s, 108° | - | - |
| 1778034304 | 23.89° C | 81% | 1013.9 hPa | 0 mm | 1.79 m/s, 104° | - | - |
| 1778034265 | 23.89° C | 82% | 1013.9 hPa | 0 mm | 0.89 m/s, 224° | - | - |
| 1778034004 | 23.33° C | 82% | 1014 hPa | 0 mm | 0 m/s | - | - |
| 1778033956 | 23.33° C | 82% | 1014 hPa | 0 mm | 0.45 m/s, 180° | - | - |
| 1778033705 | 23.33° C | 82% | 1013.9 hPa | 0 mm | 2.24 m/s, 261° | - | - |
| 1778033645 | 23.33° C | 82% | 1013.9 hPa | 0 mm | 1.79 m/s, 213° | - | - |
| 1778033405 | 23.33° C | 82% | 1014 hPa | 0 mm | 0.45 m/s, 187° | - | - |
| 1778033335 | 23.33° C | 83% | 1013.9 hPa | 0 mm | 0.45 m/s, 11° | - | - |
| 1778033104 | 23.33° C | 83% | 1014 hPa | 0 mm | 0.45 m/s, 135° | - | - |
| 1778033026 | 23.33° C | 83% | 1014 hPa | 0 mm | 0.89 m/s, 122° | - | - |
| 1778032804 | 22.78° C | 83% | 1014 hPa | 0 mm | 0.45 m/s, 69° | - | - |
| 1778032715 | 22.78° C | 83% | 1014 hPa | 0 mm | 0.89 m/s, 24° | - | - |
| 1778032504 | 22.78° C | 83% | 1014 hPa | 0 mm | 0.89 m/s, 27° | - | - |
| 1778032407 | 22.78° C | 83% | 1014 hPa | 0 mm | 1.34 m/s, 53° | - | - |
| 1778032204 | 22.78° C | 83% | 1014 hPa | 0 mm | 1.34 m/s, 19° | - | - |
| 1778032095 | 22.78° C | 83% | 1013.9 hPa | 0 mm | 0.89 m/s, 326° | - | - |
| 1778031904 | 22.78° C | 83% | 1013.9 hPa | 0 mm | 0.45 m/s, 159° | - | - |
* Rain latest hour (hover to see other rain measurements)
** Current wind speed in m/s (hover to see current wind gust speed)